Aérodrome :
LOGIN :

S'inscrire | Disclaimer

   EN    FR    IT 

 










Légende :    VFR   VFR Marginal   IFR   IFR Intensif   IFR Très Intensif
Visi : 
Plafond : 
>= 8 km
>= 3000ft
5 à 8 km
1000 à 3000 ft
1500m à 5 km
500 à 1000 ft
800 à 1500m
200 à 500 ft
< 800m
< 200 ft
Symboles :   Orages  Brouillard  Fortes neiges  Fortes précipitations  Vent > 20 kt
SIGMETs :   Divers  Orages  Givrage  Turbulence  Onde Orograph.  Cendres Volcan.






- Altitude de l'aérodrome : 277 ft
- Code IATA : JER


EGJJ - Jersey

DERNIER METAR :
  • 290450Z 25015KT 9999 FEW009 15/13 Q1014

METARs EXPIRÉS :
  • 290420Z AUTO 24015KT 9999 FEW011/// SCT016/// 15/13 Q1014
  • 290350Z AUTO 25016KT 9999 FEW019/// SCT024/// 15/13 Q1013
  • 290320Z AUTO 25015KT 9999 NCD 15/13 Q1013
  • 290250Z AUTO 25016KT 9999 FEW012/// 15/13 Q1013
  • 290220Z AUTO 25016KT 9999 FEW015/// BKN026/// BKN030/// 15/13 Q1013

TAF TAF EGJJ
Valide du 29 à 03h jusqu'au 29 à 12h UTC


290157Z 2903/2912 25015KT 9999 FEW015
ATIS : +44 1534 498 073



MET'MAP, la Météo Aéronautique d'un coup d'oeil ! - Copyright ORBIFLY Décembre 2007 - Disclaimer

ORBIFLY MET'MAP TEAM :

Programmation & Développement : Alexandra Zaïnal
Sur une idée originale de : Baudouin d'Aumeries
Assistance à la programmation : Marc-Olivier Méhu
Soutien technique & logistique : Manuel Goepfert

Contact : metmap@orbifly.com




SOURCES & CREDITS :

   NOAA